Palacios, TX

12:19 PM CDT on September 21, 2017 (GMT -0500)
Palacios Municipal

Weather History for KPSX - August, 2014

Change the Weather History Date:

Saturday, August 9, 2014

  Actual Average Record
Temperature  
Mean Temperature 88 °F -  
Max Temperature 91 °F 90 °F 98 °F (1948)
Min Temperature 84 °F 76 °F 65 °F (1989)
Cooling Degree Days 22    
Growing Degree Days 38 (Base 50)    
Moisture  
Dew Point 77 °F    
Average Humidity 73    
Maximum Humidity 84    
Minimum Humidity 58    
Precipitation  
Precipitation 0.00 in - - ()
Sea Level Pressure  
Sea Level Pressure 29.98 in    
Wind  
Wind Speed 10 mph (South)    
Max Wind Speed 15 mph    
Max Gust Speed 21 mph    
Visibility 10 miles    
Events      
Averages and records for this station are not official NWS values.
T = Trace of Precipitation, MM = Missing Value Source: NWS Daily Summary

Daily Weather History Graph

Daily Weather History Graph

Search for Another Location

Airport or City:

Trip Planner

Search our weather history database for the weather conditions in past years. The results will help you decide how hot, cold, wet, or windy it might be!

Date:

Astronomy

Aug. 09, 2014 Rise Set
Actual Time 6:50 AM CDT 8:09 PM CDT
Civil Twilight 6:25 AM CDT 8:34 PM CDT
Nautical Twilight 5:55 AM CDT 9:04 PM CDT
Astronomical Twilight 5:24 AM CDT 9:35 PM CDT
Moon 7:14 PM CDT (8/9) 5:33 AM CDT (8/9)
Length of Visible Light 14h 09m
Length of Day
13h 18m
Waxing Gibbous, 98% of the Moon is Illuminated
Aug 9
Waxing Gibbous
Aug 10
Full
Aug 17
Last Quarter
Aug 25
New
Sep 2
First Quarter

Hourly Weather History & Observations

Time (CDT) Temp. Heat Index Dew Point Humidity Pressure Visibility Wind Dir Wind Speed Gust Speed Precip Events Conditions
12:37 AM 84.0 °F 94.8 °F 78.1 °F 82% 29.98 in 10.0 mi SSE 9.2 mph - N/A   Scattered Clouds
12:53 AM 84.0 °F 94.8 °F 78.1 °F 82% 29.99 in 10.0 mi SSE 8.1 mph - N/A   Partly Cloudy
1:53 AM 84.0 °F 94.8 °F 78.1 °F 82% 29.98 in 10.0 mi SSE 10.4 mph - N/A   Clear
2:53 AM 84.0 °F 94.8 °F 78.1 °F 82% 29.97 in 10.0 mi South 12.7 mph - N/A   Clear
3:53 AM 84.0 °F 93.7 °F 77.0 °F 79% 29.96 in 10.0 mi South 12.7 mph - N/A   Scattered Clouds
4:53 AM 84.0 °F 93.7 °F 77.0 °F 79% 29.96 in 10.0 mi South 9.2 mph - N/A   Scattered Clouds
5:26 AM 84.2 °F 94.1 °F 77.0 °F 79% 29.95 in 10.0 mi South 11.5 mph - N/A   Mostly Cloudy
5:33 AM 84.0 °F 93.7 °F 77.0 °F 79% 29.95 in 10.0 mi South 9.2 mph - N/A   Scattered Clouds
5:53 AM 84.0 °F 93.7 °F 77.0 °F 79% 29.96 in 10.0 mi South 10.4 mph - N/A   Partly Cloudy
6:53 AM 84.0 °F 93.7 °F 77.0 °F 79% 29.97 in 10.0 mi South 8.1 mph - N/A   Partly Cloudy
7:53 AM 84.9 °F 94.1 °F 75.9 °F 74% 29.99 in 10.0 mi South 6.9 mph - N/A   Clear
8:53 AM 87.1 °F 97.3 °F 75.9 °F 69% 30.02 in 10.0 mi South 10.4 mph - N/A   Clear
9:53 AM 87.1 °F 97.3 °F 75.9 °F 69% 30.03 in 10.0 mi South 10.4 mph - N/A   Partly Cloudy
10:53 AM 88.0 °F 98.5 °F 75.9 °F 67% 30.04 in 10.0 mi South 8.1 mph - N/A   Clear
12:53 PM 91.0 °F 102.9 °F 75.9 °F 61% 30.02 in 10.0 mi South 11.5 mph - N/A   Clear
1:53 PM 91.9 °F 103.2 °F 75.0 °F 58% 30.01 in 10.0 mi South 12.7 mph - N/A   Clear
2:53 PM 91.9 °F 103.9 °F 75.9 °F 59% 29.99 in 10.0 mi South 13.8 mph 20.7 mph N/A   Clear
3:53 PM 91.9 °F 103.9 °F 75.9 °F 59% 29.97 in 10.0 mi South 12.7 mph - N/A   Clear
4:53 PM 91.0 °F 104.2 °F 77.0 °F 63% 29.95 in 10.0 mi South 12.7 mph - N/A   Clear
5:53 PM 90.0 °F 102.5 °F 77.0 °F 65% 29.93 in 10.0 mi SSE 11.5 mph - N/A   Clear
6:53 PM 89.1 °F 101.4 °F 77.0 °F 67% 29.93 in 10.0 mi SSE 15.0 mph - N/A   Clear
7:53 PM 87.1 °F 97.3 °F 75.9 °F 69% 29.94 in 10.0 mi SSE 10.4 mph - N/A   Clear
8:53 PM 84.9 °F 95.3 °F 77.0 °F 77% 29.96 in 10.0 mi SE 11.5 mph - N/A   Clear
9:53 PM 84.2 °F 96.1 °F 78.8 °F 84% 29.98 in 10.0 mi SE 12.7 mph - N/A   Clear
10:53 PM 84.0 °F 94.8 °F 78.1 °F 82% 29.99 in 10.0 mi SSE 13.8 mph - N/A   Clear
11:53 PM 84.0 °F 94.8 °F 78.1 °F 82% 30.00 in 10.0 mi SSE 11.5 mph - N/A   Clear